Regional Weather Roundup
Issued by NWS

Home | Current Version | Previous Version | Text Only | Print | Product List | Glossary Off
Versions: 1 2 3 4 5 6 7 8 9 10 11 12 13 14 15 16 17 18 19 20 21 22 23 24 25 26 27 28 29 30 31 32 33 34 35 36 37 38 39 40 41 42 43 44 45 46 47 48 49 50

190
ASUS43 KMPX 262201
RWRMN
WEATHER ROUNDUP FOR MINNESOTA
NATIONAL WEATHER SERVICE TWIN CITIES/CHANHASSEN MN
500 PM CDT MON JUN 26 2017


NOTE: "FAIR" INDICATES FEW OR NO CLOUDS BELOW 12,000 FEET WITH NO
SIGNIFICANT WEATHER AND/OR OBSTRUCTIONS TO VISIBILITY. N/A MEANS
CURRENT SKY AND/OR WEATHER CONDITIONS ARE NOT AVAILABLE.

MNZ060>063-068>070-262300-
   Twin Cities Metro

CITY           SKY/WX    TMP DP  RH WIND       PRES   REMARKS
TWIN CITIES    PTSUNNY   71  43  36 N10       30.11F
ST PAUL        CLOUDY    67  46  47 N16G22    30.12S
CRYSTAL        MOSUNNY   70  40  33 N13       30.10F
BLAINE         MOSUNNY   68  48  49 N12       30.12S
LAKEVILLE      MOSUNNY   70  45  40 W9        30.11F
EDEN PRAIRIE   MOSUNNY   73  43  33 NW13G18   30.10F
SOUTH ST PAUL  CLOUDY    69  42  37 N10G17    30.11S
LAKE ELMO      FAIR      64  46  52 N8        30.13S
$$
MNZ001>005-007-008-013>017-022>024-027-028-262300-
   Northwest Minnesota

CITY           SKY/WX    TMP DP  RH WIND       PRES   REMARKS
BEMIDJI        PTSUNNY   68  38  33 NW14      30.11F
HALLOCK        MOSUNNY   70  39  32 NW8       30.09F
ROSEAU         MOSUNNY   72  46  40 NW12G20   30.07F
WARROAD        SUNNY     70  48  46 NW10      30.08F
CROOKSTON      MOSUNNY   72  39  30 NW7       30.12F
FOSSTON        MOSUNNY   70  39  32 NW12G17   30.13F
DETROIT LAKES  SUNNY     70  36  28 W6G17     30.15F
MOORHEAD       MOSUNNY   72  37  28 NW7       30.14F
PARK RAPIDS    PTSUNNY   69  36  29 NW14      30.12F
MAHNOMEN       FAIR      68  40  35 W10G16    30.13F
$$
MNZ006-009>011-018-025>026-262300-
   North Central Minnesota

CITY           SKY/WX    TMP DP  RH WIND       PRES   REMARKS
BAUDETTE       MOSUNNY   66  44  45 NW10      30.06F
FLAG ISLAND    MOSUNNY   66  45  45 N9        30.04F
INTL FALLS     MOSUNNY   69  44  40 NW16G24   30.04F
WASKISH        PTSUNNY   66  48  52 W12       30.08F
BIG FORK       MOSUNNY   70  45  40 NW7       30.07F
LONGVILLE      MOSUNNY   68  45  42 W7        30.11F
GRAND RAPIDS   MOSUNNY   66  41  40 NW16G23   30.10F
CRANE LAKE     MOSUNNY   64  46  52 NW7       30.06F
ORR            MOSUNNY   66  45  45 NW8G16    30.03F
COOK           RAIN      59  52  77 NW5G23    30.07S
WALKER         MOCLDY    68  42  38 W13G18    30.11F
$$
MNZ012-019>021-037-262300-
   Northeast Minnesota

CITY           SKY/WX    TMP DP  RH WIND       PRES   REMARKS
DULUTH         MOSUNNY   62  50  64 NW12      30.07F
ELY            MOSUNNY   63  45  51 W10G22    30.04F
HIBBING        MOSUNNY   65  43  44 NW17G23   30.07S
EVELETH        SUNNY     63  50  62 W7        30.08F
DULUTH HARBOR  PTSUNNY   64  48  55 NW9       30.07F
TWO HARBORS    CLOUDY    72  50  46 N9G22     30.02F
SILVER BAY     PTSUNNY   61  54  77 CALM      30.03F
GRAND MARAIS     N/A     52  45  77 E7        30.01R
G MARAIS ARPRT CLOUDY    63  39  42 NW6       30.02S THUNDER
$$
MNZ029>031-032-039>041-046>048-054>057-064-262300-
   West Central Minnesota

CITY           SKY/WX    TMP DP  RH WIND       PRES   REMARKS
FERGUS FALLS   MOSUNNY   70  41  35 NW13      30.12F
WHEATON        SUNNY     70  37  30 NW6       30.17F
MORRIS         SUNNY     72  39  30 NW8       30.14F
ALEXANDRIA     SUNNY     68  39  34 NW9       30.16F
ELBOW LAKE     FAIR      68  41  37 N10       30.16F
WADENA         SUNNY     68  43  40 NW12G17   30.14S
GLENWOOD       SUNNY     70  39  32 NW8       30.16F
APPLETON       SUNNY     72  36  26 N10       30.15F
BENSON         MOSUNNY   72  39  30 NE6       30.16F
ORTONVILLE     MOSUNNY   70  37  30 NE7       30.16F
MADISON        MOSUNNY   72  43  35 N7        30.16F
WILLMAR        FAIR      70  43  37 N5        30.16F
$$
MNZ033>034-036-042>043-049>051-058-059-262300-
   Central Minnesota

CITY           SKY/WX    TMP DP  RH WIND       PRES   REMARKS
ST CLOUD       MOSUNNY   73  42  32 NW10G20   30.12F
SAUK CENTRE    FAIR      69  42  37 NW9       30.14F
PAYNESVILLE    MOSUNNY   69  38  31 NW5       30.14F
AITKIN         MOSUNNY   68  43  40 NW10G16   30.09F
PINE RIVER     PTSUNNY   68  46  45 N5        30.15S
BRAINERD       LGT RAIN  65  44  46 N8        30.13S
STAPLES        MOSUNNY   70  37  30 NW13      30.13F
LONG PRAIRIE   PTSUNNY   70  43  37 W8        30.14F
LITTLE FALLS   PTSUNNY   70  37  30 NW8       30.13F
LITCHFIELD     SUNNY     72  43  35 NW7       30.14F
BUFFALO        PTSUNNY   71  40  32 NW6       30.13F
MAPLE LAKE     SUNNY     70  45  41 NW7       30.13F
HUTCHINSON     MOSUNNY   71  44  38 NW8       30.14F
$$
MNZ037-044-045-052-053-262300-
   East Central Minnesota

CITY           SKY/WX    TMP DP  RH WIND       PRES   REMARKS
PRINCETON      SUNNY     72  41  33 N7        30.12F
MORA           SUNNY     64  46  52 NW8       30.14F
CAMBRIDGE      SUNNY     72  48  43 N10       30.10F
RUSH CITY      PTSUNNY   64  46  52 NW6       30.12S
MOOSE LAKE     MOSUNNY   68  41  37 W12G22    30.07S
HINCKLEY       FAIR      68  46  45 W7G16     30.10F
CLOQUET        CLOUDY    63  45  51 W8        30.09S
MCGREGOR       PTSUNNY   68  41  37 NW13      30.09F
$$
MNZ071>073-080-081-089-090-097-098-262300-
   Southwest Minnesota

CITY           SKY/WX    TMP DP  RH WIND       PRES   REMARKS
MONTEVIDEO     MOSUNNY   73  41  31 NE5       30.15F
GRANITE FALLS  MOSUNNY   72  43  35 NW8       30.17F
CANBY          SUNNY     71  37  29 CALM      30.17F
MARSHALL       SUNNY     69  40  34 N6G18     30.16F
REDWOOD FALLS  MOSUNNY   71  40  32 N8        30.14F
OLIVIA         MOSUNNY   70  41  35 N9        30.14F
PIPESTONE      SUNNY     70  37  30 N6        30.17S
WINDOM         SUNNY     70  36  28 NW7       30.16S
WORTHINGTON    SUNNY     68  40  35 N14       30.17F
JACKSON        SUNNY     68  36  30 N7        30.15F
TRACY          SUNNY     69  40  34 NW5       30.16F
SLAYTON        SUNNY     67  38  34 N8        30.18F
$$
MNZ065>067-074>077-082>085-091>093-262300-
   South Central Minnesota

CITY           SKY/WX    TMP DP  RH WIND       PRES   REMARKS
MANKATO        SUNNY     68  40  35 NW6       30.14F
NEW ULM        MOSUNNY   70  37  30 NE8       30.13F
ST JAMES       MOSUNNY   70  41  35 N7        30.15F
FAIRMONT       MOSUNNY   69  41  36 N10       30.15F
GLENCOE        MOSUNNY   71  45  40 NW9       30.12F
FARIBAULT      PTSUNNY   70  39  32 W7        30.13F
OWATONNA       MOSUNNY   70  43  37 NW6       30.13F
WASECA         MOSUNNY   70  41  35 NW8       30.14F
ALBERT LEA     MOSUNNY   68  37  32 N8        30.13F HAZE
$$
MNZ078>079-086>088-094>096-262300-
   Southeast Minnesota

CITY           SKY/WX    TMP DP  RH WIND       PRES   REMARKS
ROCHESTER      MOSUNNY   67  42  40 N12       30.12F
RED WING       PTSUNNY   72  37  28 NW8       30.09F
STANTON        MOSUNNY   70  42  36 NW8       30.10F
DODGE CENTER   MOSUNNY   66  41  39 N8        30.12F
WINONA         SUNNY     70  45  40 NW7       30.10F
AUSTIN         MOSUNNY   66  43  42 NW5       30.12F
PRESTON        MOSUNNY   64  44  47 NW10      30.12F
$$
ABBREVIATIONS USED IN REMARKS
   TC - TEMPERATURES IN CELSIUS
  WCI - WIND CHILL INDEX
   HX - HEAT INDEX
  VSB - VISIBILITY
$$




USA.gov is the U.S. government's official web portal to all federal, state and local government web resources and services.